Content
SEND FEEDBACK

Daily
Averages
Monthly
Summary
United States of America

AUBURN, CALIFORNIA


Home > North America > United States > California
Elevation: 1279 feet     Latitude: 38 53N     Longitude: 121 04W

WEATHER
 
SELECT A DAY
Number of Records: 291,037;   Date Range: 8/19/02 - 7/20/14
 
SHARE

PRINT THIS DATA

[ ← Previous Day ]
WEATHER ALMANAC - APRIL 7, 2013
[ Next Day → ]
[ °C ]   °F
Weather ElementAverageHighLow
Temperature55.3 °F62.6 °F (12:35 pm)46.4 °F (11:15 pm)
Dewpoint48.9 °F51.8 °F (12:35 am)44.6 °F (8:15 pm)
Humidity79.9 %100 % (5:35 am)59 % (12:35 pm)
Barometer30.01 in30.14 in (12:35 am)29.79 in (11:55 pm)
Wind Speed7.9 mph12.7 mph (2:35 pm)
Wind Gust21.9 mph (2:55 pm)
Weather ElementAverage
Visibility9.7 mi
Wind DirectionS (175.3 °)

Weather ElementTotal
Precipitation0.06 in
Heating Degree Days10.5 (Base 65)
Growing Degree Days4.5 (Base 50)
Averaged from 68 records on April 7, 2013
WEATHER CONDITIONS BREAKOUT
WIND DIRECTION BREAKOUT
WEATHER BY HOUR - APRIL 7, 2013
[ °C ]   °F
Local TimeTemperatureDewpointHumidityBarometerVisibilityWind DirectionWind SpeedGust SpeedPrecipitationEventsConditions
12:35 AM55.4 °F51.8 °F88 %30.14 in10.0 miSE (140°)5.8 mphMostly Cloudy
12:55 AM55.4 °F51.8 °F88 %30.14 in10.0 miSE (140°)5.8 mphMostly Cloudy
1:15 AM55.4 °F51.8 °F88 %30.13 in10.0 miSSE (150°)5.8 mphOvercast
1:35 AM53.6 °F51.8 °F94 %30.14 in10.0 miSSE (150°)5.8 mphMostly Cloudy
2:15 AM53.6 °F51.8 °F94 %30.13 in10.0 miSSE (150°)5.8 mphOvercast
2:35 AM53.6 °F51.8 °F94 %30.12 in10.0 miSSE (150°)5.8 mphOvercast
2:55 AM53.6 °F51.8 °F94 %30.12 in10.0 miSSE (150°)4.6 mphOvercast
3:15 AM53.6 °F51.8 °F94 %30.11 in10.0 miSE (140°)4.6 mphOvercast
3:35 AM53.6 °F51.8 °F94 %30.11 in10.0 miSSE (150°)4.6 mphOvercast
3:55 AM53.6 °F51.8 °F94 %30.10 in10.0 miSE (140°)5.8 mphOvercast
4:15 AM53.6 °F51.8 °F94 %30.10 in10.0 miSouth (180°)3.5 mphOvercast
4:35 AM53.6 °F51.8 °F94 %30.10 in10.0 miSSE (160°)5.8 mphOvercast
4:55 AM53.6 °F51.8 °F94 %30.10 in10.0 miSouth (170°)5.8 mphOvercast
5:15 AM53.6 °F51.8 °F94 %30.10 in10.0 miSE (140°)4.6 mphOvercast
5:35 AM51.8 °F51.8 °F100 %30.10 in10.0 miSSE (160°)3.5 mphOvercast
5:55 AM51.8 °F51.8 °F100 %30.10 in10.0 miCalmOvercast
6:15 AM51.8 °F50.0 °F94 %30.09 in10.0 miSE (140°)5.8 mphMostly Cloudy
6:35 AM51.8 °F48.2 °F88 %30.09 in10.0 miSE (130°)5.8 mphMostly Cloudy
6:55 AM51.8 °F48.2 °F88 %30.10 in10.0 miSE (140°)5.8 mphMostly Cloudy
7:15 AM50.0 °F48.2 °F94 %30.11 in10.0 miSSE (150°)4.6 mphMostly Cloudy
7:35 AM50.0 °F46.4 °F87 %30.10 in10.0 miSSE (150°)6.9 mphMostly Cloudy
7:55 AM50.0 °F46.4 °F87 %30.11 in10.0 miSE (140°)5.8 mphMostly Cloudy
8:15 AM51.8 °F46.4 °F82 %30.11 in10.0 miSSE (150°)4.6 mphPartly Cloudy
8:35 AM51.8 °F46.4 °F82 %30.10 in10.0 miSE (140°)3.5 mphClear
8:55 AM53.6 °F46.4 °F77 %30.10 in10.0 miSE (130°)6.9 mphClear
9:15 AM55.4 °F46.4 °F72 %30.09 in10.0 miSSE (150°)5.8 mphClear
9:35 AM55.4 °F46.4 °F72 %30.08 in10.0 miSSE (160°)5.8 mphClear
10:15 AM57.2 °F46.4 °F67 %30.09 in10.0 miSE (140°)4.6 mphClear
10:35 AM59.0 °F46.4 °F63 %30.10 in10.0 miSSW (200°)5.8 mphClear
10:55 AM59.0 °F48.2 °F67 %30.09 in10.0 miSouth (170°)3.5 mphPartly Cloudy
11:15 AM60.8 °F48.2 °F63 %30.07 in10.0 miSSW (210°)8.1 mphPartly Cloudy
11:35 AM60.8 °F48.2 °F63 %30.08 in10.0 miSSW (210°)8.1 mphPartly Cloudy
11:55 AM60.8 °F48.2 °F63 %30.08 in10.0 miSSW (210°)8.1 mphClear
12:15 PM60.8 °F48.2 °F63 %30.07 in10.0 miSouth (180°)9.2 mphClear
12:35 PM62.6 °F48.2 °F59 %30.06 in10.0 miSW (230°)10.4 mphClear
12:55 PM62.6 °F51.8 °F68 %30.04 in10.0 miSSW (210°)11.5 mphClear
1:15 PM62.6 °F50.0 °F63 %30.04 in10.0 miSSW (210°)9.2 mphClear
1:35 PM62.6 °F50.0 °F63 %30.02 in10.0 miSSW (200°)11.5 mphClear
1:55 PM62.6 °F51.8 °F68 %30.02 in10.0 miSW (220°)11.5 mph17.3 mphPartly Cloudy
2:15 PM62.6 °F51.8 °F68 %30.01 in10.0 miSW (220°)11.5 mphPartly Cloudy
2:35 PM62.6 °F50.0 °F63 %30.00 in10.0 miSSW (210°)12.7 mph18.4 mphScattered Clouds
2:55 PM60.8 °F51.8 °F72 %29.99 in10.0 miSSW (200°)9.2 mph21.9 mphMostly Cloudy
3:15 PM60.8 °F51.8 °F72 %29.99 in10.0 miSW (220°)11.5 mph18.4 mphMostly Cloudy
3:35 PM60.8 °F51.8 °F72 %29.98 in10.0 miSSW (210°)9.2 mphMostly Cloudy
3:55 PM60.8 °F51.8 °F72 %29.98 in10.0 miSSW (200°)12.7 mph18.4 mphMostly Cloudy
4:15 PM60.8 °F51.8 °F72 %29.96 in10.0 miSouth (180°)11.5 mph18.4 mphScattered Clouds
4:35 PM60.8 °F51.8 °F72 %29.96 in10.0 miSSW (200°)10.4 mph16.1 mphMostly Cloudy
4:55 PM59.0 °F51.8 °F77 %29.96 in10.0 miSouth (190°)6.9 mphMostly Cloudy
5:15 PM57.2 °F51.8 °F82 %29.94 in10.0 miSouth (190°)11.5 mphMostly Cloudy
5:35 PM57.2 °F50.0 °F77 %29.92 in10.0 miSouth (170°)8.1 mph16.1 mphScattered Clouds
5:55 PM57.2 °F48.2 °F72 %29.91 in10.0 miSouth (190°)11.5 mph16.1 mphClear
6:15 PM57.2 °F48.2 °F72 %29.90 in10.0 miSSW (200°)11.5 mph18.4 mphClear
6:35 PM55.4 °F48.2 °F77 %29.88 in10.0 miSouth (180°)11.5 mph18.4 mphClear
6:55 PM55.4 °F48.2 °F77 %29.87 in10.0 miSouth (180°)11.5 mph19.6 mphClear
7:15 PM55.4 °F48.2 °F77 %29.87 in9.0 miSouth (190°)9.2 mph19.6 mphClear
7:35 PM55.4 °F46.4 °F72 %29.89 in10.0 miSSW (200°)11.5 mph17.3 mphClear
8:15 PM53.6 °F44.6 °F72 %29.85 in10.0 miSSW (210°)11.5 mph17.3 mphClear
8:35 PM53.6 °F44.6 °F72 %29.87 in10.0 miSW (220°)6.9 mphClear
8:55 PM51.8 °F44.6 °F76 %29.85 in10.0 miSSW (200°)9.2 mph18.4 mphPartly Cloudy
9:15 PM51.8 °F44.6 °F76 %29.84 in10.0 miSouth (190°)12.7 mph17.3 mphScattered Clouds
9:35 PM51.8 °F44.6 °F76 %29.85 in10.0 miSouth (190°)10.4 mphMostly Cloudy
9:55 PM50.0 °F44.6 °F82 %29.85 in10.0 miSouth (180°)11.5 mph16.1 mphMostly Cloudy
10:15 PM48.2 °F44.6 °F87 %29.85 in7.0 miSSW (200°)8.1 mphOvercast
10:35 PM48.2 °F44.6 °F87 %29.84 in9.0 miSouth (190°)10.4 mph16.1 mph0.01 inMostly Cloudy
10:55 PM48.2 °F44.6 °F87 %29.83 in7.0 miSSW (200°)6.9 mph0.01 inMostly Cloudy
11:15 PM46.4 °F44.6 °F93 %29.81 in10.0 miSouth (190°)9.2 mphMostly Cloudy
11:35 PM46.4 °F44.6 °F93 %29.80 in5.0 miSSW (200°)8.1 mph0.01 inMostly Cloudy
11:55 PM46.4 °F44.6 °F93 %29.79 in5.0 miSouth (180°)9.2 mph0.03 inOvercast
Hourly data recorded from KAUN, located miles away from Auburn, California







STORIES FROM OUR PARTNERS